Date String (YYYY-MM-DD hh:mm:ss) UTC,Instrument flags,Ambient pressure (hPa),Sample flow (lpm),Bypass flow (lpm),Sample temperature (°C),Ambient temperature (°C),ASC tube jacket temperature (°C),LED temperature (°C),Box temperature (°C),Sample RH (%),Span deviation,Mass concentration (μg/m³),Mass concentration (μg/m³),Mass concentration (μg/m³)
DateTimeUTC,F1_M11,P_M11,Q1_M11,Q2_M11,T1_M11,T2_M11,T3_M11,T4_M11,T5_M11,U1_M11,ZSPAN_M11,X0_M11,X2_M11,X1_M11
2022-01-24 03:00:00,,0822.6,4.99,0.00,25.0,24.4,00.0,34.0,26.9,08.7,0000.0,0001.74,0001.14,0001.01
2022-01-24 03:01:00,,0822.5,5.01,0.00,25.1,24.4,00.0,34.0,26.9,08.6,0000.0,0002.06,0001.27,0001.14
2022-01-24 03:02:00,,0822.6,5.00,0.00,25.1,24.5,00.0,34.0,26.9,08.4,0000.0,0002.23,0001.41,0001.26
2022-01-24 03:03:00,,0822.5,5.00,0.00,25.1,24.5,00.0,34.1,27.0,08.4,0000.0,0002.39,0001.56,0001.40
2022-01-24 03:04:00,,0822.5,5.00,0.00,25.1,24.5,00.0,34.1,27.0,08.3,0000.0,0002.53,0001.66,0001.48
2022-01-24 03:05:00,,0822.4,5.00,0.00,25.1,24.5,00.0,34.1,26.9,08.4,0000.0,0002.59,0001.71,0001.53
2022-01-24 03:06:00,,0822.4,5.02,0.00,25.1,24.5,00.0,34.1,26.9,08.4,0000.0,0002.65,0001.75,0001.56
2022-01-24 03:07:00,,0822.3,4.99,0.00,25.1,24.5,00.0,34.1,26.9,08.6,0000.0,0002.88,0001.90,0001.69
2022-01-24 03:08:00,,0822.3,4.99,0.00,25.1,24.5,00.0,34.1,26.9,08.6,0000.0,0003.06,0002.08,0001.87
2022-01-24 03:09:00,,0822.4,4.99,0.00,25.1,24.5,00.0,34.1,26.9,08.5,0000.0,0003.33,0002.25,0002.05
2022-01-24 03:10:00,,0822.4,5.00,0.00,25.1,24.5,00.0,34.1,26.9,08.5,0000.0,0003.48,0002.44,0002.23
2022-01-24 03:11:00,,0822.4,5.00,0.00,25.1,24.5,00.0,34.1,26.9,08.5,0000.0,0003.34,0002.50,0002.31
2022-01-24 03:12:00,,0822.4,5.02,0.00,25.1,24.5,00.0,34.1,26.9,08.5,0000.0,0003.06,0002.46,0002.28
2022-01-24 03:13:00,,0822.4,5.00,0.00,25.1,24.5,00.0,34.1,27.0,08.3,0000.0,0002.97,0002.37,0002.20
2022-01-24 03:14:00,,0822.4,5.00,0.00,25.1,24.5,00.0,34.1,27.0,08.3,0000.0,0002.88,0002.27,0002.09
2022-01-24 03:15:00,,0822.4,5.00,0.00,25.1,24.5,00.0,34.1,27.0,08.3,0000.0,0002.82,0002.23,0002.06
2022-01-24 03:16:00,,0822.4,5.00,0.00,25.1,24.5,00.0,34.1,27.0,08.3,0000.0,0002.83,0002.24,0002.06
2022-01-24 03:17:00,,0822.4,5.00,0.00,25.2,24.5,00.0,34.1,27.0,08.3,0000.0,0002.84,0002.26,0002.08
2022-01-24 03:18:00,,0822.4,5.02,0.00,25.2,24.5,00.0,34.1,27.0,08.3,0000.0,0002.76,0002.21,0002.05
2022-01-24 03:19:00,,0822.4,5.00,0.00,25.2,24.5,00.0,34.1,27.0,08.3,0000.0,0002.73,0002.08,0001.93
2022-01-24 03:20:00,,0822.4,4.99,0.00,25.2,24.5,00.0,34.1,27.0,08.4,0000.0,0002.47,0001.91,0001.76
2022-01-24 03:21:00,,0822.3,4.99,0.00,25.2,24.5,00.0,34.1,26.9,08.5,0000.0,0002.34,0001.77,0001.63
2022-01-24 03:22:00,,0822.3,5.01,0.00,25.1,24.5,00.0,34.1,26.9,08.4,0000.0,0002.31,0001.73,0001.59
2022-01-24 03:23:00,,0822.3,4.99,0.00,25.1,24.4,00.0,34.1,26.9,08.4,0000.0,0003.69,0001.77,0001.61
2022-01-24 03:24:00,,0822.3,5.00,0.00,25.1,24.4,00.0,34.1,26.9,08.4,0000.0,0004.11,0001.87,0001.70
2022-01-24 03:25:00,,0822.3,5.01,0.00,25.1,24.4,00.0,34.1,26.9,08.4,0000.0,0004.29,0002.02,0001.83
2022-01-24 03:26:00,,0822.3,4.99,0.00,25.1,24.4,00.0,34.1,26.9,08.3,0000.0,0004.63,0002.26,0002.04
2022-01-24 03:27:00,,0822.2,5.00,0.00,25.1,24.4,00.0,34.1,26.9,08.3,0000.0,0004.96,0002.52,0002.28
2022-01-24 03:28:00,,0822.2,5.01,0.00,25.1,24.3,00.0,34.1,26.8,08.3,0000.0,0005.91,0002.78,0002.50
2022-01-24 03:29:00,,0822.2,4.99,0.00,25.0,24.3,00.0,34.1,26.7,08.3,0000.0,0006.59,0003.04,0002.74
2022-01-24 03:30:00,,0822.2,5.02,0.00,25.0,24.2,00.0,34.1,26.7,08.3,0000.0,0006.90,0003.21,0002.97
2022-01-24 03:31:00,,0822.2,5.00,0.00,25.0,24.2,00.0,34.0,26.7,08.3,0000.0,0007.36,0003.35,0003.15
2022-01-24 03:32:00,,0822.2,4.99,0.00,24.9,24.2,00.0,34.0,26.7,08.3,0000.0,0008.15,0003.49,0003.27
2022-01-24 03:33:00,,0822.2,5.00,0.00,24.9,24.2,00.0,34.0,26.6,08.3,0000.0,0008.69,0003.64,0003.38
2022-01-24 03:34:00,,0822.3,5.00,0.00,24.9,24.2,00.0,34.0,26.7,08.4,0000.0,0008.05,0003.74,0003.47
2022-01-24 03:35:00,,0822.3,5.00,0.00,24.9,24.2,00.0,34.0,26.7,08.3,0000.0,0008.12,0003.83,0003.55
2022-01-24 03:36:00,,0822.3,5.01,0.00,24.9,24.2,00.0,34.0,26.7,08.3,0000.0,0008.24,0003.92,0003.62
2022-01-24 03:37:00,,0822.3,5.01,0.00,25.0,24.2,00.0,34.0,26.7,08.3,0000.0,0008.29,0003.91,0003.61
2022-01-24 03:38:00,,0822.3,5.00,0.00,24.9,24.2,00.0,34.0,26.7,08.3,0000.0,0008.47,0003.89,0003.56
2022-01-24 03:39:00,,0822.3,4.99,0.00,24.9,24.2,00.0,34.0,26.7,08.3,0000.0,0008.07,0003.84,0003.49
2022-01-24 03:40:00,,0822.2,5.01,0.00,24.9,24.2,00.0,34.0,26.7,08.4,0000.0,0008.24,0003.79,0003.42
2022-01-24 03:41:00,,0822.2,4.99,0.00,24.9,24.2,00.0,34.0,26.7,08.4,0000.0,0008.16,0003.73,0003.36
2022-01-24 03:42:00,,0822.2,5.00,0.00,24.9,24.2,00.0,33.9,26.7,08.4,0000.0,0008.32,0003.67,0003.29
2022-01-24 03:43:00,,0822.2,5.00,0.00,24.9,24.2,00.0,33.9,26.7,08.5,0000.0,0008.92,0003.60,0003.22
2022-01-24 03:44:00,,0822.2,5.00,0.00,24.9,24.2,00.0,33.9,26.7,08.5,0000.0,0008.83,0003.52,0003.15
